www.pogodaiklimat.ru

Погода и климат >> Архив погоды >> Австралия >> Южная Австралия >> Ли-Крик


ПОГОДА в Ли-Крике

  • Прогноз погоды в Ли-Крике
  • Монитор погоды в Ли-Крике

АРХИВ ПОГОДЫ в Ли-Крике

Время (UTC), дата Ветер
(напр.,м/с)
 
Видим.   Явления Облачность Т
(С)
Тd
(С)
f
(%)
Тe
(С)
Тes
(С)
Комфортность P
(гПа)
Po
(гПа)
Тmin
(С)
Tmax
(С)
R
(мм)
R24
(мм)
S
(см)
22 11.08 Ю 2 н/о н/о +1.9 -1.7 77 -1 -1 1026.3 995.2
23 11.08 штиль 0 н/о н/о +6.7 +1.0 67 +6 +6 1027.0 995.9
01 12.08 В 2 н/о н/о +11.2 +1.5 51 +10 +10 1027.3 996.2
02 12.08 ЮВ 2 н/о н/о +11.8 +0.6 46 +11 +11 1027.0 995.9 +1.5
04 12.08 Ю 5 н/о н/о +13.6 -1.2 36 +12 +12 1025.3 994.2
05 12.08 ЮВ 3 н/о н/о +14.3 -0.9 35 +14 +14 1024.9 993.8
07 12.08 Ю 3 н/о н/о +14.3 -1.3 34 +14 +14 1024.7 993.6
08 12.08 Ю 4 н/о н/о +13.2 -1.2 37 +12 +12 1025.1 994.0
10 12.08 ЮВ 3 н/о н/о +10.2 -1.5 44 +9 +9 1026.8 995.7
11 12.08 ЮВ 4 н/о н/о +7.8 -2.0 50 +5 +5 1027.2 996.1
13 12.08 ЮВ 2 н/о н/о +5.6 -3.0 54 +4 +4 1027.2 996.1
14 12.08 штиль 0 н/о н/о +5.2 -2.6 57 +5 +5 1027.0 995.9 +16.0
16 12.08 ЮВ 2 н/о н/о +3.4 -3.4 61 +1 +1 1026.5 995.4
17 12.08 ЮВ 1 н/о н/о +2.4 -3.9 63 +1 +1 1026.4 995.3
19 12.08 ЮВ 2 н/о н/о +2.3 -3.4 66 -1 -1 1026.8 995.7
20 12.08 штиль 0 н/о н/о +0.5 -5.3 65 -0 -0 1027.2 996.1
22 12.08 ЮВ 2 н/о н/о +2.6 -3.1 66 -0 -0 1028.5 997.3
23 12.08 В 4 н/о н/о +8.7 -0.9 51 +6 +6 1028.8 997.6
01 13.08 СВ 3 н/о н/о +13.8 -1.4 35 +13 +13 1028.6 997.4
02 13.08 СВ 2 н/о н/о +15.1 -1.5 32 +15 +15 1028.3 997.1 +0.5
04 13.08 С 2 н/о н/о +15.2 -1.8 31 +16 +16 1026.3 995.2
05 13.08 С 2 н/о н/о +16.0 -2.0 29 +17 +17 1025.6 994.5
08 13.08 Ю 2 н/о н/о +15.3 -2.2 30 +16 +16 1025.3 994.2
10 13.08 Ю 3 н/о н/о +10.4 -3.3 38 +9 +9 1026.6 995.5
11 13.08 Ю 3 н/о н/о +10.5 -2.5 40 +9 +9 1027.3 996.2
13 13.08 В 4 н/о н/о +6.6 -3.6 48 +4 +4 1027.2 996.1
14 13.08 В 2 н/о н/о +5.5 -3.8 51 +4 +4 1027.2 996.1 +17.3
16 13.08 ЮВ 3 н/о н/о +4.2 -4.0 55 +1 +1 1027.0 995.9
17 13.08 ЮВ 2 н/о н/о +4.4 -3.6 56 +2 +2 1026.6 995.5
19 13.08 ЮВ 3 н/о н/о +3.9 -3.8 57 +1 +1 1026.2 995.1
20 13.08 ЮВ 3 н/о н/о +4.3 -3.2 58 +1 +1 1026.6 995.5
22 13.08 ЮВ 3 н/о н/о +3.9 -3.4 59 +1 +1 1027.1 996.0
23 13.08 ЮВ 2 н/о н/о +8.3 -1.8 49 +7 +7 1027.3 996.2
01 14.08 С 6 н/о н/о +16.2 -0.5 32 +15 +15 1026.9 995.8
02 14.08 С 6 н/о н/о +17.4 -1.3 28 +17 +17 1026.1 995.0 +2.9
04 14.08 С 7 н/о н/о +18.9 -2.7 23 +18 +18 1023.9 992.9
05 14.08 С 6 н/о н/о +19.2 -4.3 20 +19 +19 1023.2 992.2
07 14.08 СЗ 6 н/о н/о +18.5 -4.2 21 +18 +18 1022.6 991.6
08 14.08 С 6 н/о н/о +17.0 -4.8 22 +16 +16 1022.5 991.5
10 14.08 С 2 н/о н/о +11.8 -5.6 29 +11 +11 1023.5 992.5
11 14.08 С 2 н/о н/о +10.8 -5.6 31 +11 +11 1023.6 992.6
13 14.08 штиль 0 н/о н/о +7.9 -6.2 36 +8 +8 1024.6 993.5
14 14.08 ЮВ 4 н/о н/о +5.9 -7.0 39 +3 +3 1024.8 993.7 +19.8
16 14.08 В 2 н/о н/о +3.4 -7.7 44 +2 +2 1024.1 993.1
17 14.08 В 3 н/о н/о +3.6 -6.9 46 +1 +1 1023.6 992.6
19 14.08 ЮВ 2 н/о н/о +4.1 -5.6 49 +2 +2 1022.9 991.9
20 14.08 ЮВ 3 н/о н/о +3.5 -5.9 50 0 0 1022.7 991.7
22 14.08 ЮВ 2 н/о н/о +4.9 -5.2 48 +3 +3 1023.7 992.7
23 14.08 штиль 0 н/о н/о +9.8 -4.5 36 +10 +10 1024.1 993.1
01 15.08 С 7 н/о н/о +18.3 -3.8 22 +18 +18 1023.9 992.9
02 15.08 С 9 н/о н/о +19.6 -3.9 20 +19 +19 1023.4 992.4 +2.1
04 15.08 С 8 н/о н/о +21.1 -4.9 17 +20 +20 1021.0 990.0
05 15.08 С 9 н/о н/о +21.6 -7.0 14 +20 +20 1019.8 988.9
07 15.08 С 7 н/о н/о +20.9 -7.6 14 +20 +20 1019.1 988.2
08 15.08 С 6 н/о н/о +19.6 -8.6 14 +19 +19 1019.2 988.3
10 15.08 С 3 н/о н/о +13.7 -8.2 21 +13 +13 1020.1 989.2
11 15.08 штиль 0 н/о н/о +12.1 -8.4 23 +12 +12 1020.5 989.6
13 15.08 С 2 н/о н/о +10.1 -8.5 26 +10 +10 1020.3 989.4
14 15.08 С 1 н/о н/о +9.3 -8.2 28 +11 +11 1019.8 988.9 +22.3
16 15.08 С 2 н/о н/о +6.5 -9.4 31 +6 +6 1018.7 987.8
17 15.08 С 2 н/о н/о +7.4 -8.2 32 +6 +6 1019.0 988.1
19 15.08 С 3 н/о н/о +6.6 -8.5 33 +4 +4 1018.4 987.5
20 15.08 ЮЗ 2 н/о н/о +6.3 -9.2 32 +5 +5 1019.3 988.4
22 15.08 штиль 0 н/о н/о +8.5 -8.1 30 +9 +9 1020.2 989.3
23 15.08 ЮВ 2 н/о н/о +12.9 -7.2 24 +13 +13 1020.5 989.6
01 16.08 С 5 н/о н/о +19.8 -8.4 14 +19 +19 1020.1 989.2
02 16.08 С 5 н/о н/о +22.4 -9.5 11 +20 +20 1019.9 989.0 +4.8
04 16.08 З 7 н/о н/о +24.0 -9.5 10 +22 +22 комфорт 1018.4 987.5
05 16.08 З 5 н/о н/о +25.3 -9.8 9 +22 +22 комфорт 1017.7 986.8
07 16.08 Ю 7 н/о н/о +19.8 +0.3 27 +19 +19 1018.2 987.3
08 16.08 Ю 5 н/о н/о +19.0 +1.1 30 +19 +19 1018.5 987.6
10 16.08 Ю 7 н/о н/о +16.1 +2.9 41 +15 +15 1019.8 988.9
11 16.08 Ю 3 н/о н/о +15.5 +3.0 43 +15 +15 1020.0 989.1
13 16.08 Ю 3 н/о н/о +14.7 +6.0 56 +14 +14 1019.2 988.3
14 16.08 Ю 3 н/о н/о +14.8 +6.6 58 +14 +14 1018.6 987.7 +25.6
16 16.08 Ю 2 н/о н/о +13.6 +5.0 56 +13 +13 1018.5 987.6
17 16.08 Ю 3 н/о н/о +13.1 +4.5 56 +12 +12 1018.1 987.2
19 16.08 В 4 н/о н/о +13.6 +3.7 51 +12 +12 1017.7 986.8
20 16.08 В 4 н/о н/о +13.1 +4.0 54 +12 +12 1017.2 986.4
22 16.08 В 3 н/о н/о +12.3 +4.0 57 +11 +11 1018.4 987.5
23 16.08 СВ 3 н/о н/о +17.3 +4.3 42 +17 +17 1018.3 987.4
01 17.08 С 6 н/о н/о +23.0 -4.1 16 +21 +21 комфорт 1017.4 986.6
02 17.08 С 7 н/о н/о +24.0 -5.1 14 +22 +22 комфорт 1016.9 986.1 +11.3
04 17.08 С 9 н/о н/о +25.8 -6.9 11 +23 +23 комфорт 1014.9 984.1
05 17.08 С 8 н/о н/о +26.5 -6.3 11 +24 +24 комфорт 1014.1 983.4
07 17.08 С 9 н/о н/о +24.9 -7.5 11 +22 +22 комфорт 1013.3 982.6
08 17.08 С 7 н/о н/о +23.5 -7.5 12 +21 +21 комфорт 1013.5 982.8
10 17.08 С 6 н/о н/о +19.9 -6.6 16 +19 +19 1013.8 983.1
11 17.08 С 6 н/о н/о +19.2 -6.4 17 +19 +19 1013.8 983.1
13 17.08 С 7 н/о н/о +18.8 -8.3 15 +18 +18 1012.8 982.1
14 17.08 С 7 н/о н/о +18.5 -8.6 15 +18 +18 1012.1 981.4 +26.8
16 17.08 С 3 н/о н/о +13.0 -8.8 21 +12 +12 1012.7 982.0
17 17.08 С 2 н/о н/о +13.6 -7.7 22 +13 +13 1012.8 982.1
19 17.08 ЮЗ 8 н/о н/о +13.5 +3.6 51 +11 +11 1014.2 983.5
20 17.08 ЮЗ 7 н/о н/о +12.5 +4.7 59 +10 +10 1015.2 984.4
22 17.08 ЮЗ 6 н/о н/о +11.8 +5.2 64 +9 +9 1016.5 985.7
23 17.08 ЮЗ 6 н/о н/о +12.7 +5.4 61 +10 +10 1017.2 986.4
01 18.08 З 9 н/о н/о +14.1 +2.0 44 +12 +12 1017.9 987.0
02 18.08 З 9 н/о н/о +14.7 +0.9 39 +13 +13 1017.8 986.9 +11.3
04 18.08 З 9 н/о н/о +16.2 -2.3 28 +15 +15 1016.8 986.0
05 18.08 З 10 н/о н/о +15.8 -2.6 28 +14 +14 1017.0 986.2
07 18.08 З 9 н/о н/о +15.7 -3.2 27 +14 +14 1017.4 986.6
08 18.08 З 9 н/о н/о +14.6 -3.2 29 +13 +13 1018.4 987.5
10 18.08 ЮЗ 11 н/о н/о +11.3 +0.7 48 +8 +8 1021.0 990.0
11 18.08 ЮЗ 11 н/о н/о +10.2 +0.8 52 +6 +6 1021.7 990.7
13 18.08 ЮЗ 9 н/о н/о +8.4 +1.6 62 +4 +4 1023.3 992.3
14 18.08 ЮЗ 9 н/о н/о +7.6 +1.7 66 +3 +3 1023.8 992.8 +19.2
16 18.08 Ю 5 н/о н/о +6.0 +1.3 72 +2 +2 1025.0 993.9
17 18.08 Ю 4 н/о н/о +5.2 +1.3 76 +1 +1 1025.2 994.1
19 18.08 Ю 3 н/о н/о +3.7 +0.9 82 -0 -0 1026.0 994.9
20 18.08 Ю 2 н/о н/о +3.2 +0.6 83 +1 +1 1026.7 995.6
22 18.08 Ю 3 н/о н/о +3.5 +1.2 85 -0 -0 1029.1 997.9

 

Местоположение метеостанции Ли-Крик (Южная Австралия, Австралия): широта -30.60 долгота 138.42 высота над уровнем моря 11 м.

В архиве по умолчанию представлена погода в Ли-Крике за последнюю неделю. Архивные данные за месяц целиком и за предыдущие месяцы, начиная с января 2011 года, Вы можете получить, выбрав интересующий диапазон дат из раскрывающегося списка и нажав кнопку "Ввод!".


*Определитесь, кто Вы:
робот инопланетянин человек

Внимание! Время в таблицах - всемирное. Для получения местного времени необходимо прибавить поправку, которая равна 9.5 ч.

Смотрите также архив погоды в соседних городах и на ближайших метеорологических станциях:

Погода в Марри (Южная Австралия, Австралия) (110 км)
Погода в Олимпик Дэм (Южная Австралия, Австралия) (148 км)
Погода на Аэродроме Вумера (Южная Австралия, Австралия) (165 км)
Погода в Порт Огаста (Южная Австралия, Австралия) (224 км)
Погода в Юнте (Южная Австралия, Австралия) (245 км)
Погода в Уиолле (Южная Австралия, Австралия) (288 км)
Погода в Фоулерс Гэп (Новый Южный Уэльс, Австралия) (318 км)
Погода в Мумбе (Южная Австралия, Австралия) (327 км)
Погода в Брокен-Хилл аэропорту (Новый Южный Уэльс, Австралия) (328 км)
Погода в Сноутауне (Южная Австралия, Австралия) (354 км)

Пояснения к столбцам:

Ветер - указаны скорость ветра в м/с - средняя за 10 мин, порывы в срок и между сроками (в фигурных скобках) и направление, откуда дует ветер: С - северный, СВ - северо-восточный, В - восточный, ЮВ - юго-восточный, Ю - южный, ЮЗ - юго-западный, З - западный, СЗ - северо-западный.
Видимость - горизонтальная дальность видимости в метрах или километрах. При видимости от 1 до 10 км при отсутствии осадков обычно наблюдается дымка, при ухудшении видимости до 1 км и менее - туман. В сухую погоду видимость может ухудшаться дымом, пылью или мглою.
Явления - указаны атмосферные явления, наблюдавшиеся в срок или в последний час перед сроком; фигурными скобками обозначены явления, наблюдавшиеся между сроками (за 1-3 часа до срока); квадратными скобками обозначены град или гололедные отложения с указанием их диаметра в мм.
Облачность - указаны через наклонную черту общая и нижняя облачность в баллах и высота нижней границы облаков в метрах; квадратными скобками обозначены формы облаков: Ci - перистые, Cs - перисто-слоистые, Cc - перисто-кучевые, Ac - высококучевые, As - высокослоистые, Sc - слоисто-кучевые, Ns - слоисто-дождевые, Cu - кучевые, Cb - кучево-дождевые. Подробнее классификацию облаков см. в Атласе облаков (PDF).
T - Температура воздуха - температура, измеренная на высоте 2 м над землей.
Td - Температура точки росы - температура, при понижении до которой содержащийся в воздухе водяной пар достигнет насыщения.
f - Относительная влажность воздуха - влажноcть воздуха, измеренная на высоте 2 м над землей.
Te - Эффективная температура - температура, которую ощущает одетый по сезону человек в тени. Характеристика душности погоды. При расчете учитывается влияние влажности воздуха и скорости ветра на теплоощущения человека.
Tes - Эффективная температура на солнце - температура, которую ощущает человек, с поправкой на солнечный нагрев. Характеристика знойности погоды. Зависит от высоты солнца над горизонтом, облачности и скорости ветра. Ночью, в пасмурную погоду, а также при ветре 12 м/с и более поправка равна нулю.
P - Атмосферное давление - приведенное к уровню моря атмосферное давление.
Po - Атмосферное давление - измеренное на уровне метеостанции атмосферное давление.
Tmin - Минимальная температура - минимум температуры воздуха на высоте 2 м над землей.
Tmax - Максимальная температура - максимум температуры воздуха на высоте 2 м над землей.
R - Количество осадков - Количество выпавших осадков за период времени, мм. При наведении курсора мыши на число - период времени, за который выпало указанное количество осадков.
R24 - Количество осадков - Количество выпавших осадков за 24 часа, мм.
S - Снежный покров - Высота снежного покрова, см. При наведении курсора мыши на число - состояние снежного покрова и степень покрытия местности в баллах.